Location: Newark
(7.0858°N, 171.3717°E)
Time: 19:13:29
(UTC+00:00)

Vanguard 2 - Pass Details

Date: 02 December 2020
Orbit: 553 x 2937 km, 32.9° (Epoch: 17 January)

Event Time Altitude Azimuth Distance (km) Brightness Sun altitude
Rises 16:36:53 0° 226° (SW) 6,769 12.1 -27.5°
Reaches altitude 10° 16:41:46 10° 222° (SW) 5,652 11.7 -26.3°
Maximum altitude 16:57:56 57° 147° (SSE) 2,535 10.3 -22.6°
Drops below altitude 10° 17:08:30 10° 71° (ENE) 3,848 11.8 -20.2°
Sets 17:11:08 0° 67° (ENE) 4,557 12.2 -19.5°
